Tracking 35275 objects as of 9-Sep-2026
HD Live streaming from Space Station
objects crossing your sky now

CZ-2C DEB


CZ-2C DEB is no longer on orbit


NORAD ID: 22166
Int'l Code: 1992-064F
Launch date: October 6, 1992
Source: People's Republic of China (PRC)
Launch site: Jiuquan Satellite Launch Center, China (JSC)
Decay date: 1992-10-09

Note: This is SATELLITE DEBRIS
Your satellite tracking list
Your tracking list is empty




NASA's NSSDC Master Catalog

Two Line Element Set (TLE):
1 22166U 92064  F 92283.13149028  .13218668 +36100-4 +47598-2 0  9994
2 22166 063.3150 046.6147 0061065 165.8064 196.9888 16.19423798000383
Source of the keplerian elements: AFSPC